Weather History for Farnborough, United Kingdom

Change the Weather History Date:

Sunday, December 8, 2013

  Actual Average (EGLL) Record (EGLL)
Temperature  
Mean Temperature 44 °F -  
Max Temperature 51 °F 47 °F 57 °F (2000)
Min Temperature 37 °F 38 °F 28 °F (2010)
Degree Days  
Heating Degree Days 21    
Moisture  
Dew Point 44 °F    
Average Humidity 86    
Maximum Humidity 93    
Minimum Humidity 73    
Precipitation  
Precipitation 0.00 in - - ()
Sea Level Pressure  
Sea Level Pressure 30.28 in    
Wind  
Wind Speed 9 mph ()    
Max Wind Speed 17 mph    
Max Gust Speed -    
Visibility 7.3 miles    
Events      
Averages and records for this station are not official NWS values.
T = Trace of Precipitation, MM = Missing Value Source: Averaged Metar Reports

Daily Weather History Graph

Daily Weather History Graph

Search for Another Location

Airport:

Trip Planner

Search our weather history database for the weather conditions in past years. The results will help you decide how hot, cold, wet, or windy it might be!

Date:

Astronomy

Dec. 08, 2013 Rise Set
Actual Time 7:54 AM GMT 3:55 PM GMT
Civil Twilight 7:14 AM GMT 4:35 PM GMT
Nautical Twilight 6:32 AM GMT 5:17 PM GMT
Astronomical Twilight 5:51 AM GMT 5:57 PM GMT
Moon 11:35 AM GMT (12/8) 11:02 PM GMT (12/8)
Length of Visible Light 9h 20m
Length of Day
8h 01m
Waxing Crescent, 37% of the Moon is Illuminated
Dec 8
Waxing Crescent
Dec 9
First Quarter
Dec 17
Full
Dec 25
Last Quarter
Jan 1
New

Hourly Weather History & Observations

Time (GMT) Temp. Windchill Dew Point Humidity Pressure Visibility Wind Dir Wind Speed Gust Speed Precip Events Conditions
12:00 AM 44 °F - 41 °F 85% 30.31 in 47 mi WSW 6.9 mph - -   Mostly Cloudy
3:00 AM 40 °F - 38 °F 91% 30.28 in 47 mi WSW 6.9 mph - -   Scattered Clouds
6:00 AM 40 °F - 38 °F 90% 30.28 in 40 mi WSW 4.6 mph - -  
7:50 AM 41.0 °F 35.8 °F 39.2 °F 93% 30.27 in 6.2 mi WSW 8.1 mph - N/A   Partly Cloudy
8:20 AM 42.8 °F 38.6 °F 39.2 °F 87% 30.27 in 6.2 mi WSW 6.9 mph - N/A   Partly Cloudy
8:50 AM 44.6 °F 40.2 °F 41.0 °F 87% 30.27 in 6.2 mi WSW 8.1 mph - N/A   Partly Cloudy
9:00 AM 46 °F - 41 °F 77% 30.30 in 37 mi WSW 6.9 mph - -   Mostly Cloudy
9:20 AM 46.4 °F 41.1 °F 42.8 °F 87% 30.30 in 6.2 mi WSW 11.5 mph - N/A   Partly Cloudy
9:50 AM 46.4 °F 40.4 °F 42.8 °F 87% 30.30 in 6.2 mi WSW 13.8 mph - N/A   Partly Cloudy
10:20 AM 46.4 °F 41.1 °F 44.6 °F 93% 30.30 in 6.2 mi WSW 11.5 mph - N/A   Partly Cloudy
10:50 AM 48.2 °F - 46.4 °F 93% 30.30 in 6.2 mi WSW 15.0 mph - N/A   Partly Cloudy
11:20 AM 50.0 °F - 46.4 °F 87% 30.30 in 6.2 mi West 13.8 mph - N/A   Partly Cloudy
11:50 AM 50.0 °F - 46.4 °F 87% 30.30 in 6.2 mi WSW 16.1 mph - N/A   Partly Cloudy
12:00 PM 51 °F - 45 °F 74% 30.30 in 22 mi West 11.5 mph - -   Mostly Cloudy
12:20 PM 50.0 °F - 46.4 °F 87% 30.27 in 6.2 mi WSW 17.3 mph - N/A   Partly Cloudy
12:50 PM 51.8 °F - 44.6 °F 76% 30.27 in 6.2 mi WSW 16.1 mph - N/A   Partly Cloudy
1:20 PM 50.0 °F - 44.6 °F 82% 30.27 in 6.2 mi SW 16.1 mph - N/A   Scattered Clouds
1:50 PM 51.8 °F - 44.6 °F 76% 30.27 in 6.2 mi WSW 12.7 mph - N/A   Scattered Clouds
2:20 PM 51.8 °F - 44.6 °F 76% 30.27 in 6.2 mi SW 15.0 mph - N/A   Scattered Clouds
2:50 PM 50.0 °F - 44.6 °F 82% 30.27 in 6.2 mi SW 13.8 mph - N/A   Scattered Clouds
3:00 PM 51 °F - 45 °F 73% 30.28 in 22 mi SW 11.5 mph - -   Mostly Cloudy
3:20 PM 50.0 °F - 46.4 °F 87% 30.27 in 6.2 mi SW 13.8 mph - N/A   Partly Cloudy
3:50 PM 50.0 °F - 46.4 °F 87% 30.27 in 6.2 mi WSW 11.5 mph - N/A   Partly Cloudy
4:20 PM 48.2 °F - 46.4 °F 93% 30.27 in 6.2 mi SW 11.5 mph - N/A   Partly Cloudy
4:50 PM 46.4 °F 41.5 °F 42.8 °F 87% 30.27 in 6.2 mi SW 10.4 mph - N/A   Partly Cloudy
5:20 PM 46.4 °F 40.7 °F 42.8 °F 87% 30.27 in 6.2 mi SW 12.7 mph - N/A   Partly Cloudy
5:50 PM 46.4 °F 41.9 °F 44.6 °F 93% 30.27 in - WSW 9.2 mph - N/A   Clear
6:00 PM 46 °F - 43 °F 87% 30.30 in 19 mi WSW 9.2 mph - -  
6:20 PM 46.4 °F 41.5 °F 44.6 °F 93% 30.30 in - WSW 10.4 mph - N/A   Clear
6:50 PM 46.4 °F 41.1 °F 44.6 °F 93% 30.30 in - WSW 11.5 mph - N/A   Clear
7:20 PM 46.4 °F 41.5 °F 44.6 °F 93% 30.30 in - WSW 10.4 mph - N/A   Clear
9:00 PM 47 °F - 44 °F 84% 30.32 in 18 mi WSW 8.1 mph - -